| time (UTC) | temp F | wind direction | speed MPH | gust MPH | rain 1hr in | rain 24hr in | rain mn in | humidity % | barometer mb |
| 20260510134602 | 53 | 249 | 0.0 | 4.0 | 0.00 | 0.75 | 0.01 | 97 | 1011.0 |
| 20260510134031 | 52 | 82 | 1.0 | 4.0 | 0.00 | 0.75 | 0.01 | 98 | 1011.0 |
| 20260510133533 | 51 | 0 | 1.0 | 4.0 | 0.00 | 0.75 | 0.01 | 98 | 1011.0 |
| 20260510133043 | 50 | 238 | 1.0 | 4.0 | 0.00 | 0.75 | 0.01 | 98 | 1011.1 |
| 20260510132531 | 49 | 68 | 2.0 | 6.0 | 0.00 | 0.75 | 0.01 | 98 | 1011.1 |
| 20260510132032 | 49 | 62 | 2.0 | 6.0 | 0.00 | 0.75 | 0.01 | 98 | 1011.1 |
| 20260510131546 | 49 | 90 | 1.0 | 4.0 | 0.00 | 0.75 | 0.01 | 98 | 1011.1 |
| 20260510131034 | 48 | 59 | 1.0 | 7.0 | 0.00 | 0.75 | 0.01 | 98 | 1011.2 |
| 20260510130531 | 48 | 48 | 2.0 | 7.0 | 0.00 | 0.75 | 0.01 | 98 | 1011.2 |
| 20260510130044 | 48 | 73 | 3.0 | 6.0 | 0.00 | 0.75 | 0.01 | 98 | 1011.2 |
| 20260510125532 | 48 | 0 | 0.0 | 4.0 | 0.00 | 0.77 | 0.01 | 98 | 1011.2 |
| 20260510125032 | 49 | 0 | 0.0 | 5.0 | 0.00 | 0.77 | 0.01 | 98 | 1011.3 |
| 20260510124554 | 48 | 55 | 1.0 | 5.0 | 0.00 | 0.77 | 0.01 | 98 | 1011.0 |
| 20260510124032 | 48 | 51 | 2.0 | 9.0 | 0.00 | 0.77 | 0.01 | 98 | 1011.0 |
| 20260510123532 | 48 | 34 | 2.0 | 9.0 | 0.00 | 0.77 | 0.01 | 98 | 1011.0 |
| 20260510123046 | 48 | 40 | 4.0 | 9.0 | 0.00 | 0.77 | 0.01 | 98 | 1011.0 |
| 20260510122532 | 48 | 68 | 3.0 | 9.0 | 0.00 | 0.77 | 0.01 | 98 | 1010.9 |
| 20260510122031 | 47 | 108 | 2.0 | 8.0 | 0.00 | 0.77 | 0.01 | 98 | 1010.9 |
| 20260510121545 | 46 | 73 | 2.0 | 10.0 | 0.00 | 0.77 | 0.01 | 98 | 1010.9 |
| 20260510121033 | 46 | 69 | 4.0 | 10.0 | 0.00 | 0.77 | 0.01 | 98 | 1010.9 |
| 20260510120532 | 46 | 89 | 4.0 | 7.0 | 0.00 | 0.77 | 0.01 | 98 | 1010.9 |
| 20260510120046 | 46 | 55 | 3.0 | 7.0 | 0.00 | 0.77 | 0.01 | 98 | 1010.9 |
| 20260510115531 | 45 | 93 | 4.0 | 9.0 | 0.00 | 0.77 | 0.01 | 98 | 1011.0 |
| 20260510115031 | 45 | 80 | 3.0 | 9.0 | 0.00 | 0.77 | 0.01 | 98 | 1011.0 |
| 20260510114543 | 45 | 78 | 3.0 | 7.0 | 0.00 | 0.77 | 0.01 | 98 | 1010.8 |
| 20260510114031 | 45 | 80 | 2.0 | 7.0 | 0.00 | 0.77 | 0.01 | 98 | 1010.9 |
| 20260510113532 | 45 | 64 | 1.0 | 7.0 | 0.00 | 0.77 | 0.01 | 98 | 1011.0 |
| 20260510113043 | 45 | 91 | 2.0 | 6.0 | 0.00 | 0.77 | 0.01 | 98 | 1010.9 |
| 20260510112531 | 45 | 56 | 2.0 | 5.0 | 0.00 | 0.77 | 0.01 | 98 | 1010.9 |
| 20260510112033 | 45 | 57 | 2.0 | 8.0 | 0.00 | 0.77 | 0.01 | 98 | 1010.9 |
| 20260510111555 | 45 | 70 | 3.0 | 8.0 | 0.00 | 0.77 | 0.01 | 98 | 1010.9 |
| 20260510111032 | 45 | 71 | 2.0 | 8.0 | 0.01 | 0.77 | 0.01 | 98 | 1010.9 |
| 20260510110530 | 45 | 77 | 2.0 | 7.0 | 0.01 | 0.77 | 0.01 | 98 | 1010.7 |
| 20260510110045 | 45 | 63 | 2.0 | 7.0 | 0.01 | 0.77 | 0.01 | 98 | 1010.7 |
| 20260510105530 | 45 | 108 | 2.0 | 7.0 | 0.01 | 0.77 | 0.01 | 98 | 1010.5 |
| 20260510105028 | 45 | 81 | 2.0 | 6.0 | 0.01 | 0.77 | 0.01 | 98 | 1010.3 |
| 20260510104604 | 45 | 64 | 3.0 | 6.0 | 0.01 | 0.77 | 0.01 | 98 | 1010.1 |
| 20260510104029 | 45 | 65 | 2.0 | 6.0 | 0.01 | 0.77 | 0.01 | 98 | 1010.1 |
| 20260510103529 | 45 | 21 | 3.0 | 7.0 | 0.01 | 0.77 | 0.01 | 98 | 1010.0 |
| 20260510103044 | 45 | 153 | 3.0 | 9.0 | 0.01 | 0.77 | 0.01 | 98 | 1009.9 |
| 20260510102529 | 45 | 88 | 5.0 | 9.0 | 0.01 | 0.77 | 0.01 | 98 | 1009.9 |
| 20260510102031 | 45 | 92 | 2.0 | 10.0 | 0.01 | 0.77 | 0.01 | 98 | 1010.0 |
| 20260510101546 | 45 | 103 | 5.0 | 10.0 | 0.01 | 0.77 | 0.01 | 98 | 1009.9 |
| 20260510101029 | 45 | 93 | 2.0 | 10.0 | 0.00 | 0.76 | 0.00 | 98 | 1009.8 |
| 20260510100532 | 45 | 126 | 2.0 | 11.0 | 0.00 | 0.76 | 0.00 | 98 | 1009.7 |
| 20260510100043 | 45 | 64 | 5.0 | 11.0 | 0.00 | 0.76 | 0.00 | 97 | 1009.6 |
| 20260510095529 | 45 | 178 | 3.0 | 10.0 | 0.00 | 0.76 | 0.00 | 97 | 1009.5 |
| 20260510095029 | 45 | 138 | 5.0 | 10.0 | 0.00 | 0.76 | 0.00 | 97 | 1009.3 |
| 20260510094546 | 45 | 130 | 3.0 | 9.0 | 0.00 | 0.76 | 0.00 | 98 | 1009.2 |
| 20260510094029 | 45 | 132 | 3.0 | 7.0 | 0.00 | 0.76 | 0.00 | 98 | 1009.2 |
| 20260510093530 | 45 | 182 | 2.0 | 6.0 | 0.00 | 0.76 | 0.00 | 98 | 1009.2 |
| 20260510093044 | 45 | 0 | 1.0 | 4.0 | 0.00 | 0.76 | 0.00 | 98 | 1009.2 |
| 20260510092529 | 45 | 63 | 1.0 | 3.0 | 0.00 | 0.76 | 0.00 | 98 | 1009.1 |
| 20260510092032 | 45 | 0 | 0.0 | 5.0 | 0.00 | 0.76 | 0.00 | 98 | 1009.2 |
| 20260510091543 | 45 | 0 | 1.0 | 5.0 | 0.00 | 0.76 | 0.00 | 98 | 1009.2 |
| 20260510091028 | 45 | 175 | 0.0 | 4.0 | 0.00 | 0.76 | 0.00 | 98 | 1009.3 |
| 20260510090530 | 45 | 0 | 0.0 | 3.0 | 0.00 | 0.76 | 0.00 | 98 | 1009.2 |
| 20260510090056 | 45 | 106 | 1.0 | 5.0 | 0.00 | 0.76 | 0.00 | 98 | 1009.1 |
| 20260510085531 | 45 | 56 | 2.0 | 5.0 | 0.00 | 0.76 | 0.00 | 97 | 1009.0 |
| 20260510085029 | 45 | 62 | 1.0 | 3.0 | 0.00 | 0.76 | 0.00 | 97 | 1009.1 |
| 20260510084542 | 45 | 0 | 0.0 | 6.0 | 0.00 | 0.76 | 0.00 | 97 | 1009.1 |
| 20260510084029 | 46 | 178 | 2.0 | 6.0 | 0.00 | 0.76 | 0.00 | 98 | 1009.0 |
| 20260510083532 | 46 | 194 | 0.0 | 10.0 | 0.00 | 0.76 | 0.00 | 98 | 1008.9 |
| 20260510083039 | 46 | 219 | 3.0 | 10.0 | 0.00 | 0.76 | 0.00 | 98 | 1009.3 |
| 20260510082530 | 46 | 255 | 3.0 | 15.0 | 0.00 | 0.76 | 0.00 | 98 | 1009.3 |
| 20260510082029 | 46 | 217 | 5.0 | 15.0 | 0.00 | 0.76 | 0.00 | 98 | 1009.4 |
| 20260510081558 | 46 | 259 | 5.0 | 12.0 | 0.00 | 0.76 | 0.00 | 98 | 1009.5 |
| 20260510081029 | 46 | 252 | 4.0 | 10.0 | 0.00 | 0.76 | 0.00 | 98 | 1009.5 |
| 20260510080532 | 46 | 229 | 5.0 | 10.0 | 0.00 | 0.76 | 0.00 | 98 | 1009.4 |
| 20260510080046 | 46 | 190 | 3.0 | 12.0 | 0.00 | 0.76 | 0.00 | 98 | 1009.6 |
| 20260510075531 | 46 | 205 | 5.0 | 12.0 | 0.00 | 0.76 | 0.00 | 98 | 1009.6 |
| 20260510075030 | 46 | 236 | 3.0 | 12.0 | 0.00 | 0.76 | 0.00 | 98 | 1009.6 |
| 20260510074543 | 46 | 225 | 3.0 | 12.0 | 0.00 | 0.76 | 0.00 | 98 | 1009.5 |
| 20260510074032 | 45 | 226 | 3.0 | 11.0 | 0.00 | 0.76 | 0.00 | 98 | 1009.5 |
| 20260510073534 | 45 | 242 | 6.0 | 18.0 | 0.00 | 0.76 | 0.00 | 98 | 1009.7 |
| 20260510073044 | 45 | 209 | 3.0 | 18.0 | 0.00 | 0.76 | 0.00 | 98 | 1009.6 |
| 20260510072529 | 45 | 176 | 4.0 | 9.0 | 0.00 | 0.76 | 0.00 | 98 | 1009.6 |
| 20260510072029 | 45 | 150 | 3.0 | 14.0 | 0.00 | 0.76 | 0.00 | 98 | 1009.6 |
| 20260510071552 | 45 | 215 | 4.0 | 14.0 | 0.00 | 0.76 | 0.00 | 98 | 1009.6 |
| 20260510071029 | 44 | 223 | 2.0 | 8.0 | 0.00 | 0.76 | 0.00 | 97 | 1009.5 |
| 20260510070532 | 44 | 136 | 1.0 | 5.0 | 0.00 | 0.76 | 0.00 | 98 | 1009.4 |
| 20260510070043 | 44 | 186 | 0.0 | 4.0 | 0.00 | 0.76 | 0.00 | 98 | 1009.4 |
| 20260510065532 | 44 | 0 | 0.0 | 4.0 | 0.00 | 0.76 | 0.00 | 98 | 1009.4 |
| 20260510065030 | 44 | 76 | 0.0 | 4.0 | 0.00 | 0.76 | 0.00 | 98 | 1009.4 |
| 20260510064546 | 44 | 0 | 1.0 | 5.0 | 0.00 | 0.76 | 0.00 | 98 | 1009.2 |
| 20260510064029 | 44 | 0 | 1.0 | 6.0 | 0.00 | 0.76 | 0.00 | 98 | 1009.3 |
| 20260510063529 | 44 | 148 | 2.0 | 6.0 | 0.00 | 0.76 | 0.00 | 97 | 1009.4 |
| 20260510063045 | 44 | 131 | 1.0 | 7.0 | 0.00 | 0.76 | 0.00 | 98 | 1009.4 |
| 20260510062531 | 44 | 95 | 3.0 | 7.0 | 0.00 | 0.76 | 0.00 | 98 | 1009.4 |
| 20260510062031 | 44 | 41 | 1.0 | 6.0 | 0.00 | 0.76 | 0.00 | 98 | 1009.5 |
| 20260510061543 | 44 | 121 | 2.0 | 10.0 | 0.00 | 0.76 | 0.00 | 97 | 1009.5 |
| 20260510061032 | 44 | 142 | 2.0 | 10.0 | 0.00 | 0.76 | 0.00 | 97 | 1009.6 |
| 20260510060532 | 44 | 153 | 4.0 | 10.0 | 0.00 | 0.76 | 0.00 | 98 | 1009.6 |
| 20260510060053 | 44 | 102 | 5.0 | 9.0 | 0.00 | 0.76 | 0.00 | 97 | 1009.6 |
| 20260510055531 | 44 | 104 | 4.0 | 11.0 | 0.00 | 0.76 | 0.00 | 97 | 1009.5 |
| 20260510055031 | 44 | 82 | 5.0 | 11.0 | 0.00 | 0.76 | 0.00 | 97 | 1009.5 |
| 20260510054547 | 44 | 120 | 3.0 | 9.0 | 0.00 | 0.76 | 0.00 | 97 | 1009.5 |
| 20260510054031 | 44 | 96 | 3.0 | 9.0 | 0.00 | 0.76 | 0.00 | 97 | 1009.4 |
| 20260510053529 | 44 | 77 | 4.0 | 9.0 | 0.00 | 0.76 | 0.00 | 97 | 1009.5 |
| 20260510053052 | 44 | 69 | 3.0 | 9.0 | 0.00 | 0.76 | 0.00 | 97 | 1009.5 |
| 20260510052529 | 44 | 59 | 3.0 | 11.0 | 0.00 | 0.76 | 0.00 | 97 | 1009.6 |
| 20260510052032 | 44 | 62 | 4.0 | 11.0 | 0.00 | 0.76 | 0.00 | 97 | 1009.5 |
| 20260510051611 | 44 | 111 | 4.0 | 11.0 | 0.00 | 0.76 | 0.00 | 97 | 1009.7 |
| 20260510051031 | 44 | 119 | 5.0 | 11.0 | 0.00 | 0.76 | 0.00 | 97 | 1009.6 |
| 20260510050528 | 44 | 93 | 6.0 | 11.0 | 0.00 | 0.76 | 0.00 | 97 | 1009.6 |
| 20260510050044 | 44 | 90 | 2.0 | 11.0 | 0.00 | 0.76 | 0.00 | 97 | 1009.6 |
| 20260510045531 | 44 | 128 | 4.0 | 11.0 | 0.00 | 0.76 | 0.00 | 97 | 1009.7 |
| 20260510045029 | 44 | 109 | 4.0 | 9.0 | 0.00 | 0.76 | 0.00 | 97 | 1009.8 |
| 20260510044546 | 44 | 129 | 3.0 | 8.0 | 0.00 | 0.76 | 0.00 | 97 | 1009.8 |
| 20260510044035 | 44 | 180 | 2.0 | 9.0 | 0.00 | 0.76 | 0.00 | 97 | 1009.7 |
| 20260510043531 | 44 | 133 | 2.0 | 10.0 | 0.00 | 0.76 | 0.00 | 97 | 1009.7 |
| 20260510043120 | 44 | 150 | 4.0 | 10.0 | 0.00 | 0.76 | 0.00 | 97 | 1009.7 |
| 20260510042531 | 44 | 173 | 5.0 | 10.0 | 0.00 | 0.76 | 0.00 | 97 | 1009.8 |
| 20260510042030 | 44 | 111 | 3.0 | 10.0 | 0.00 | 0.76 | 0.00 | 97 | 1009.8 |
| 20260510041551 | 44 | 224 | 3.0 | 10.0 | 0.00 | 0.76 | 0.00 | 97 | 1009.8 |
| 20260510041031 | 44 | 136 | 3.0 | 12.0 | 0.00 | 0.76 | 0.00 | 97 | 1009.7 |
| 20260510040531 | 44 | 119 | 4.0 | 12.0 | 0.00 | 0.76 | 0.00 | 97 | 1009.7 |
| 20260510040051 | 44 | 134 | 4.0 | 12.0 | 0.00 | 0.76 | 0.00 | 97 | 1009.7 |
| 20260510035532 | 44 | 169 | 2.0 | 10.0 | 0.00 | 0.76 | 0.76 | 97 | 1009.8 |
| 20260510035032 | 44 | 130 | 4.0 | 10.0 | 0.00 | 0.76 | 0.76 | 97 | 1009.9 |
| 20260510034543 | 44 | 229 | 4.0 | 10.0 | 0.00 | 0.76 | 0.76 | 97 | 1010.0 |
| 20260510034028 | 44 | 211 | 3.0 | 9.0 | 0.01 | 0.76 | 0.76 | 97 | 1010.0 |
| 20260510033530 | 44 | 115 | 3.0 | 8.0 | 0.01 | 0.76 | 0.76 | 97 | 1009.9 |
| 20260510033050 | 44 | 132 | 2.0 | 9.0 | 0.01 | 0.76 | 0.76 | 97 | 1009.9 |
| 20260510032530 | 44 | 141 | 3.0 | 10.0 | 0.01 | 0.76 | 0.76 | 97 | 1010.0 |
| 20260510032028 | 44 | 144 | 4.0 | 10.0 | 0.01 | 0.76 | 0.76 | 97 | 1010.0 |
| 20260510031613 | 44 | 145 | 2.0 | 7.0 | 0.01 | 0.76 | 0.76 | 97 | 1010.0 |
| 20260510031032 | 44 | 178 | 2.0 | 7.0 | 0.01 | 0.76 | 0.76 | 97 | 1009.8 |
| 20260510030531 | 44 | 0 | 2.0 | 7.0 | 0.01 | 0.76 | 0.76 | 97 | 1009.9 |
| 20260510030045 | 44 | 172 | 2.0 | 9.0 | 0.01 | 0.76 | 0.76 | 97 | 1009.9 |
| 20260510025532 | 44 | 187 | 2.0 | 9.0 | 0.01 | 0.76 | 0.76 | 97 | 1009.9 |
| 20260510025034 | 44 | 200 | 3.0 | 9.0 | 0.01 | 0.76 | 0.76 | 97 | 1009.9 |
| 20260510024545 | 44 | 133 | 1.0 | 9.0 | 0.01 | 0.76 | 0.76 | 97 | 1009.8 |
| 20260510024031 | 44 | 0 | 3.0 | 9.0 | 0.00 | 0.75 | 0.75 | 97 | 1009.9 |
| 20260510023531 | 44 | 116 | 3.0 | 8.0 | 0.00 | 0.75 | 0.75 | 97 | 1010.0 |
| 20260510023053 | 43 | 132 | 2.0 | 8.0 | 0.00 | 0.75 | 0.75 | 97 | 1009.9 |
| 20260510022529 | 43 | 101 | 2.0 | 7.0 | 0.00 | 0.75 | 0.75 | 97 | 1009.8 |
| 20260510022031 | 43 | 134 | 2.0 | 8.0 | 0.00 | 0.75 | 0.75 | 97 | 1010.0 |
| 20260510021547 | 43 | 0 | 3.0 | 8.0 | 0.00 | 0.75 | 0.75 | 97 | 1010.0 |
| 20260510021030 | 43 | 155 | 3.0 | 10.0 | 0.00 | 0.75 | 0.75 | 97 | 1010.1 |
| 20260510020530 | 43 | 188 | 3.0 | 10.0 | 0.00 | 0.75 | 0.75 | 97 | 1010.2 |
| 20260510020049 | 43 | 166 | 4.0 | 10.0 | 0.00 | 0.75 | 0.75 | 97 | 1010.1 |
| 20260510015528 | 43 | 141 | 3.0 | 10.0 | 0.00 | 0.75 | 0.75 | 97 | 1010.3 |
| 20260510015028 | 43 | 122 | 5.0 | 10.0 | 0.00 | 0.75 | 0.75 | 97 | 1010.3 |
| 20260510014547 | 43 | 119 | 3.0 | 10.0 | 0.00 | 0.75 | 0.75 | 97 | 1010.2 |
| 20260510014031 | 43 | 163 | 1.0 | 7.0 | 0.00 | 0.75 | 0.75 | 97 | 1010.1 |
| 20260510013530 | 43 | 80 | 2.0 | 6.0 | 0.00 | 0.75 | 0.75 | 97 | 1010.1 |
| 20260510013045 | 43 | 127 | 1.0 | 8.0 | 0.00 | 0.75 | 0.75 | 97 | 1009.9 |
| 20260510012531 | 43 | 0 | 1.0 | 8.0 | 0.00 | 0.75 | 0.75 | 97 | 1010.1 |
| 20260510012031 | 43 | 100 | 1.0 | 6.0 | 0.00 | 0.75 | 0.75 | 97 | 1010.1 |
| 20260510011556 | 43 | 100 | 2.0 | 6.0 | 0.00 | 0.75 | 0.75 | 97 | 1010.2 |
| 20260510011030 | 43 | 0 | 1.0 | 4.0 | 0.00 | 0.75 | 0.75 | 97 | 1010.2 |
| 20260510010532 | 43 | 125 | 1.0 | 4.0 | 0.00 | 0.75 | 0.75 | 97 | 1010.1 |
| 20260510010045 | 43 | 116 | 0.0 | 3.0 | 0.00 | 0.75 | 0.75 | 97 | 1010.0 |
| 20260510005528 | 43 | 137 | 0.0 | 3.0 | 0.00 | 0.75 | 0.75 | 97 | 1010.0 |
| 20260510005031 | 43 | 0 | 0.0 | 4.0 | 0.00 | 0.75 | 0.75 | 97 | 1009.9 |
| 20260510004547 | 43 | 0 | 1.0 | 5.0 | 0.00 | 0.75 | 0.75 | 97 | 1009.9 |
| 20260510004032 | 43 | 124 | 0.0 | 7.0 | 0.00 | 0.75 | 0.75 | 97 | 1009.8 |
| 20260510003531 | 43 | 131 | 1.0 | 8.0 | 0.00 | 0.75 | 0.75 | 97 | 1009.8 |
| 20260510003048 | 43 | 147 | 4.0 | 8.0 | 0.00 | 0.75 | 0.75 | 97 | 1009.8 |
| 20260510002528 | 43 | 76 | 1.0 | 6.0 | 0.00 | 0.75 | 0.75 | 97 | 1009.6 |
| 20260510002031 | 43 | 101 | 2.0 | 6.0 | 0.00 | 0.75 | 0.75 | 97 | 1009.7 |
| 20260510001543 | 43 | 126 | 2.0 | 7.0 | 0.00 | 0.75 | 0.75 | 97 | 1009.6 |
| 20260510001031 | 43 | 143 | 2.0 | 7.0 | 0.00 | 0.75 | 0.75 | 97 | 1009.5 |
| 20260510000532 | 43 | 95 | 1.0 | 10.0 | 0.00 | 0.75 | 0.75 | 97 | 1009.4 |
| 20260510000048 | 43 | 78 | 2.0 | 10.0 | 0.00 | 0.75 | 0.75 | 97 | 1009.4 |
| 20260509235533 | 43 | 118 | 3.0 | 10.0 | 0.00 | 0.75 | 0.75 | 97 | 1009.4 |
| 20260509235033 | 43 | 90 | 2.0 | 8.0 | 0.00 | 0.75 | 0.75 | 97 | 1009.4 |
| 20260509234543 | 43 | 96 | 2.0 | 7.0 | 0.00 | 0.75 | 0.75 | 97 | 1009.2 |
| 20260509234031 | 43 | 65 | 2.0 | 9.0 | 0.00 | 0.75 | 0.75 | 97 | 1009.1 |
| 20260509233530 | 43 | 79 | 2.0 | 9.0 | 0.00 | 0.75 | 0.75 | 97 | 1009.2 |
| 20260509233048 | 43 | 65 | 4.0 | 9.0 | 0.00 | 0.75 | 0.75 | 96 | 1009.2 |
| 20260509232531 | 43 | 75 | 3.0 | 8.0 | 0.00 | 0.75 | 0.75 | 96 | 1009.1 |
| 20260509232031 | 43 | 108 | 3.0 | 7.0 | 0.00 | 0.75 | 0.75 | 96 | 1009.3 |
| 20260509231552 | 43 | 75 | 3.0 | 6.0 | 0.00 | 0.75 | 0.75 | 97 | 1009.1 |
| 20260509231028 | 43 | 78 | 2.0 | 7.0 | 0.00 | 0.75 | 0.75 | 97 | 1009.1 |
| 20260509230531 | 43 | 80 | 2.0 | 7.0 | 0.00 | 0.75 | 0.75 | 97 | 1009.1 |
| 20260509230045 | 43 | 103 | 2.0 | 7.0 | 0.00 | 0.75 | 0.75 | 96 | 1009.1 |
| 20260509225530 | 43 | 90 | 0.0 | 10.0 | 0.00 | 0.75 | 0.75 | 96 | 1009.2 |
| 20260509225032 | 43 | 89 | 2.0 | 10.0 | 0.00 | 0.75 | 0.75 | 96 | 1009.1 |
| 20260509224542 | 43 | 112 | 4.0 | 10.0 | 0.00 | 0.75 | 0.75 | 96 | 1009.1 |
| 20260509224030 | 43 | 96 | 2.0 | 8.0 | 0.00 | 0.75 | 0.75 | 96 | 1009.0 |
| 20260509223532 | 43 | 84 | 2.0 | 8.0 | 0.00 | 0.75 | 0.75 | 97 | 1009.1 |
| 20260509223047 | 43 | 107 | 2.0 | 6.0 | 0.00 | 0.75 | 0.75 | 96 | 1009.1 |
| 20260509222531 | 43 | 130 | 1.0 | 6.0 | 0.00 | 0.75 | 0.75 | 97 | 1009.1 |
| 20260509222028 | 43 | 74 | 2.0 | 6.0 | 0.00 | 0.75 | 0.75 | 97 | 1009.1 |
| 20260509221545 | 43 | 0 | 0.0 | 8.0 | 0.00 | 0.75 | 0.75 | 97 | 1009.0 |
| 20260509221031 | 42 | 0 | 2.0 | 9.0 | 0.00 | 0.75 | 0.75 | 96 | 1009.0 |
| 20260509220531 | 42 | 128 | 4.0 | 9.0 | 0.00 | 0.75 | 0.75 | 96 | 1009.0 |
| 20260509220044 | 42 | 145 | 2.0 | 8.0 | 0.00 | 0.75 | 0.75 | 96 | 1009.1 |
| 20260509215530 | 42 | 129 | 3.0 | 8.0 | 0.01 | 0.75 | 0.75 | 96 | 1009.1 |
| 20260509215028 | 42 | 88 | 2.0 | 7.0 | 0.01 | 0.75 | 0.75 | 96 | 1009.1 |
| 20260509214548 | 42 | 98 | 2.0 | 7.0 | 0.01 | 0.75 | 0.75 | 96 | 1009.1 |
| 20260509214028 | 42 | 115 | 2.0 | 6.0 | 0.01 | 0.75 | 0.75 | 96 | 1009.2 |
| 20260509213531 | 42 | 0 | 2.0 | 7.0 | 0.02 | 0.75 | 0.75 | 96 | 1009.4 |
| 20260509213101 | 42 | 96 | 2.0 | 8.0 | 0.02 | 0.75 | 0.75 | 96 | 1009.5 |
| 20260509212528 | 42 | 0 | 3.0 | 8.0 | 0.02 | 0.75 | 0.75 | 96 | 1009.4 |
| 20260509212028 | 41 | 113 | 2.0 | 7.0 | 0.03 | 0.75 | 0.75 | 96 | 1009.4 |
| 20260509211608 | 41 | 130 | 3.0 | 8.0 | 0.03 | 0.75 | 0.75 | 96 | 1009.5 |
| 20260509211032 | 41 | 134 | 3.0 | 9.0 | 0.03 | 0.75 | 0.75 | 96 | 1009.5 |
| 20260509210529 | 41 | 95 | 3.0 | 10.0 | 0.03 | 0.75 | 0.75 | 96 | 1009.6 |
| 20260509210044 | 41 | 121 | 4.0 | 10.0 | 0.04 | 0.75 | 0.75 | 96 | 1009.6 |
| 20260509205531 | 41 | 123 | 2.0 | 9.0 | 0.03 | 0.74 | 0.74 | 96 | 1009.6 |
| 20260509205031 | 41 | 133 | 2.0 | 9.0 | 0.04 | 0.74 | 0.74 | 96 | 1009.7 |
| 20260509204557 | 41 | 137 | 2.0 | 8.0 | 0.04 | 0.74 | 0.74 | 96 | 1009.7 |
| 20260509204032 | 41 | 112 | 3.0 | 11.0 | 0.05 | 0.74 | 0.74 | 96 | 1009.8 |
| 20260509203528 | 41 | 127 | 2.0 | 11.0 | 0.05 | 0.73 | 0.73 | 96 | 1009.8 |
| 20260509203052 | 41 | 146 | 1.0 | 9.0 | 0.05 | 0.73 | 0.73 | 96 | 1010.0 |
| 20260509202528 | 41 | 142 | 1.0 | 10.0 | 0.06 | 0.73 | 0.73 | 96 | 1010.0 |
| 20260509202028 | 41 | 201 | 2.0 | 10.0 | 0.05 | 0.72 | 0.72 | 96 | 1010.0 |
| 20260509201537 | 41 | 115 | 4.0 | 8.0 | 0.06 | 0.72 | 0.72 | 96 | 1010.0 |
| 20260509201030 | 41 | 123 | 2.0 | 9.0 | 0.06 | 0.72 | 0.72 | 96 | 1010.0 |
| 20260509200530 | 41 | 115 | 4.0 | 10.0 | 0.07 | 0.72 | 0.72 | 96 | 1010.0 |
| 20260509200046 | 41 | 117 | 4.0 | 10.0 | 0.07 | 0.71 | 0.71 | 96 | 1010.0 |
| 20260509195531 | 41 | 89 | 2.0 | 8.0 | 0.08 | 0.71 | 0.71 | 96 | 1010.0 |
| 20260509195031 | 41 | 132 | 3.0 | 8.0 | 0.08 | 0.70 | 0.70 | 96 | 1010.0 |
| 20260509194546 | 41 | 53 | 3.0 | 8.0 | 0.09 | 0.70 | 0.70 | 96 | 1010.0 |
| 20260509194030 | 41 | 0 | 0.0 | 5.0 | 0.09 | 0.69 | 0.69 | 96 | 1010.0 |
| 20260509193534 | 41 | 123 | 1.0 | 5.0 | 0.09 | 0.68 | 0.68 | 96 | 1009.9 |
| 20260509193046 | 41 | 65 | 1.0 | 7.0 | 0.11 | 0.68 | 0.68 | 96 | 1009.9 |
| 20260509192528 | 40 | 131 | 2.0 | 7.0 | 0.11 | 0.67 | 0.67 | 96 | 1010.1 |
| 20260509192030 | 40 | 0 | 2.0 | 7.0 | 0.12 | 0.67 | 0.67 | 96 | 1010.1 |
| 20260509191544 | 40 | 103 | 2.0 | 7.0 | 0.12 | 0.66 | 0.66 | 96 | 1010.1 |
| 20260509191035 | 40 | 105 | 4.0 | 7.0 | 0.12 | 0.65 | 0.65 | 95 | 1010.2 |
| 20260509190530 | 40 | 141 | 2.0 | 7.0 | 0.13 | 0.65 | 0.65 | 96 | 1010.3 |
| 20260509190049 | 41 | 136 | 1.0 | 7.0 | 0.14 | 0.64 | 0.64 | 96 | 1010.4 |
| 20260509185531 | 40 | 148 | 2.0 | 7.0 | 0.14 | 0.63 | 0.63 | 96 | 1010.4 |
| 20260509185030 | 40 | 123 | 2.0 | 8.0 | 0.14 | 0.62 | 0.62 | 96 | 1010.3 |
| 20260509184547 | 40 | 0 | 2.0 | 8.0 | 0.14 | 0.61 | 0.61 | 96 | 1010.4 |
| 20260509184028 | 40 | 124 | 1.0 | 9.0 | 0.14 | 0.60 | 0.60 | 96 | 1010.6 |
| 20260509183533 | 40 | 166 | 4.0 | 9.0 | 0.14 | 0.58 | 0.58 | 96 | 1010.7 |
| 20260509183043 | 40 | 149 | 3.0 | 7.0 | 0.13 | 0.57 | 0.57 | 96 | 1010.7 |
| 20260509182527 | 40 | 125 | 3.0 | 7.0 | 0.13 | 0.56 | 0.56 | 96 | 1010.7 |
| 20260509182030 | 40 | 140 | 2.0 | 10.0 | 0.13 | 0.55 | 0.55 | 96 | 1010.6 |
| 20260509181545 | 40 | 0 | 2.0 | 10.0 | 0.13 | 0.54 | 0.54 | 96 | 1010.7 |
| 20260509181030 | 40 | 87 | 4.0 | 10.0 | 0.14 | 0.52 | 0.52 | 96 | 1010.7 |
| 20260509180530 | 40 | 85 | 2.0 | 9.0 | 0.13 | 0.51 | 0.51 | 96 | 1010.6 |
| 20260509180055 | 40 | 126 | 3.0 | 8.0 | 0.13 | 0.50 | 0.50 | 96 | 1010.7 |
| 20260509175530 | 40 | 157 | 1.0 | 6.0 | 0.13 | 0.49 | 0.49 | 96 | 1010.7 |
| 20260509175033 | 40 | 0 | 2.0 | 6.0 | 0.13 | 0.48 | 0.48 | 96 | 1010.7 |
| 20260509174540 | 40 | 112 | 2.0 | 8.0 | 0.13 | 0.47 | 0.47 | 96 | 1010.8 |
| 20260509174032 | 40 | 123 | 3.0 | 8.0 | 0.13 | 0.46 | 0.46 | 95 | 1010.8 |
| 20260509173532 | 40 | 123 | 4.0 | 8.0 | 0.13 | 0.45 | 0.45 | 95 | 1010.8 |
| 20260509173044 | 40 | 131 | 2.0 | 6.0 | 0.13 | 0.44 | 0.44 | 95 | 1010.8 |
| 20260509172534 | 40 | 125 | 2.0 | 7.0 | 0.13 | 0.43 | 0.43 | 95 | 1010.9 |
| 20260509172033 | 40 | 94 | 1.0 | 7.0 | 0.13 | 0.42 | 0.42 | 95 | 1011.0 |
| 20260509171545 | 40 | 0 | 2.0 | 7.0 | 0.13 | 0.41 | 0.41 | 95 | 1011.0 |
| 20260509171032 | 40 | 178 | 2.0 | 8.0 | 0.11 | 0.39 | 0.39 | 95 | 1011.0 |
| 20260509170534 | 39 | 132 | 4.0 | 8.0 | 0.11 | 0.38 | 0.38 | 95 | 1010.9 |
| 20260509170046 | 39 | 125 | 2.0 | 8.0 | 0.11 | 0.37 | 0.37 | 95 | 1011.0 |
| 20260509165532 | 39 | 138 | 2.0 | 8.0 | 0.10 | 0.36 | 0.36 | 95 | 1011.0 |
| 20260509165032 | 40 | 126 | 2.0 | 7.0 | 0.10 | 0.35 | 0.35 | 95 | 1011.0 |
| 20260509164544 | 40 | 105 | 1.0 | 6.0 | 0.10 | 0.34 | 0.34 | 95 | 1011.0 |
| 20260509164031 | 39 | 0 | 0.0 | 6.0 | 0.10 | 0.33 | 0.33 | 95 | 1011.0 |
| 20260509163535 | 39 | 161 | 3.0 | 5.0 | 0.10 | 0.32 | 0.32 | 95 | 1011.1 |
| 20260509163050 | 39 | 0 | 2.0 | 6.0 | 0.11 | 0.31 | 0.31 | 95 | 1011.2 |
| 20260509162532 | 39 | 0 | 2.0 | 7.0 | 0.10 | 0.30 | 0.30 | 95 | 1011.2 |
| 20260509162032 | 39 | 118 | 3.0 | 7.0 | 0.10 | 0.29 | 0.29 | 95 | 1011.4 |
| 20260509161546 | 39 | 103 | 2.0 | 6.0 | 0.10 | 0.28 | 0.28 | 95 | 1011.3 |
| 20260509161033 | 39 | 161 | 2.0 | 8.0 | 0.11 | 0.28 | 0.28 | 95 | 1011.5 |
| 20260509160534 | 39 | 178 | 2.0 | 8.0 | 0.11 | 0.27 | 0.27 | 95 | 1011.6 |
| 20260509160051 | 39 | 0 | 3.0 | 8.0 | 0.11 | 0.26 | 0.26 | 95 | 1011.5 |
| 20260509155532 | 39 | 140 | 0.0 | 5.0 | 0.12 | 0.26 | 0.26 | 95 | 1011.6 |
| 20260509155031 | 38 | 138 | 3.0 | 6.0 | 0.12 | 0.25 | 0.25 | 95 | 1011.7 |
| 20260509154542 | 38 | 130 | 2.0 | 6.0 | 0.11 | 0.24 | 0.24 | 95 | 1011.8 |
| 20260509154035 | 38 | 159 | 1.0 | 8.0 | 0.11 | 0.23 | 0.23 | 95 | 1011.9 |
| 20260509153532 | 38 | 169 | 1.0 | 8.0 | 0.09 | 0.21 | 0.21 | 95 | 1011.9 |
| 20260509153045 | 38 | 165 | 2.0 | 7.0 | 0.09 | 0.20 | 0.20 | 95 | 1012.1 |
| 20260509152529 | 38 | 90 | 1.0 | 10.0 | 0.08 | 0.19 | 0.19 | 95 | 1012.0 |
| 20260509152029 | 38 | 96 | 2.0 | 10.0 | 0.09 | 0.19 | 0.19 | 95 | 1012.0 |
| 20260509151544 | 38 | 166 | 3.0 | 7.0 | 0.08 | 0.18 | 0.18 | 95 | 1012.1 |
| 20260509151032 | 38 | 131 | 1.0 | 6.0 | 0.08 | 0.17 | 0.17 | 95 | 1012.0 |
| 20260509150533 | 38 | 120 | 2.0 | 7.0 | 0.07 | 0.16 | 0.16 | 95 | 1012.1 |
| 20260509150049 | 38 | 115 | 4.0 | 7.0 | 0.06 | 0.15 | 0.15 | 95 | 1012.1 |
| 20260509145531 | 38 | 134 | 2.0 | 9.0 | 0.06 | 0.14 | 0.14 | 95 | 1012.1 |
| 20260509145033 | 38 | 167 | 3.0 | 9.0 | 0.05 | 0.13 | 0.13 | 94 | 1012.1 |
| 20260509144544 | 38 | 146 | 3.0 | 8.0 | 0.06 | 0.13 | 0.13 | 94 | 1012.1 |
| 20260509144029 | 38 | 116 | 2.0 | 10.0 | 0.05 | 0.12 | 0.12 | 94 | 1012.1 |
| 20260509143533 | 38 | 139 | 4.0 | 10.0 | 0.06 | 0.12 | 0.12 | 94 | 1012.0 |
| 20260509143050 | 38 | 160 | 3.0 | 8.0 | 0.06 | 0.11 | 0.11 | 94 | 1012.1 |
| 20260509142532 | 38 | 140 | 2.0 | 8.0 | 0.06 | 0.11 | 0.11 | 94 | 1011.9 |
| 20260509142029 | 38 | 136 | 3.0 | 8.0 | 0.06 | 0.10 | 0.10 | 94 | 1011.9 |
| 20260509141546 | 38 | 90 | 3.0 | 8.0 | 0.06 | 0.10 | 0.10 | 94 | 1011.9 |
| 20260509141029 | 38 | 128 | 3.0 | 8.0 | 0.06 | 0.09 | 0.09 | 94 | 1011.9 |
| 20260509140529 | 38 | 0 | 3.0 | 8.0 | 0.06 | 0.09 | 0.09 | 94 | 1011.8 |
| 20260509140048 | 38 | 120 | 2.0 | 10.0 | 0.07 | 0.09 | 0.09 | 94 | 1011.8 |
| 20260509135530 | 38 | 99 | 4.0 | 10.0 | 0.06 | 0.08 | 0.08 | 93 | 1011.8 |
| 20260509135031 | 38 | 141 | 5.0 | 10.0 | 0.06 | 0.08 | 0.08 | 93 | 1011.7 |